When you browse on this site, cookies collect data to enhance your experience and personalize the content and advertising you see.
Visit our Privacy Policy to learn more. By continuing to use the site, you agree to this use of cookies and data.
  • In Spain
  • List of Countries
  • For 7 days
  • Water Temperature
  • Weather Map
  • Weather Widgets
  • user-avatar
    Login

    Hourly Weather Parincevo

    Today, 18 August, Sunday

    Time Temperature Precipitation Wind Pressure Humidity
    00:00 +17°C° 0.1 mm 3 mps 734 mmHg 98%
    01:00 +17°C° 0.1 mm 3 mps 734 mmHg 98%
    02:00 +16°C° 0.1 mm 2 mps 734 mmHg 98%
    03:00 +16°C° 0 mm 2 mps 734 mmHg 98%
    04:00 +16°C° 0 mm 2 mps 734 mmHg 98%
    05:00 +16°C° 0 mm 1 mps 734 mmHg 98%
    06:00 +18°C° 0 mm 1 mps 734 mmHg 95%
    07:00 +18°C° 0 mm 2 mps 735 mmHg 92%
    08:00 +19°C° 0 mm 2 mps 735 mmHg 89%
    09:00 +19°C° 0.1 mm 2 mps 735 mmHg 85%
    10:00 +20°C° 0.1 mm 2 mps 735 mmHg 81%
    11:00 +21°C° 0.1 mm 2 mps 735 mmHg 77%
    12:00 +23°C° 0.3 mm 2 mps 736 mmHg 75%
    13:00 +22°C° 0.3 mm 3 mps 736 mmHg 74%
    14:00 +24°C° 0.3 mm 3 mps 736 mmHg 73%
    15:00 +22°C° 0.5 mm 3 mps 736 mmHg 76%
    16:00 +21°C° 0.5 mm 4 mps 737 mmHg 80%
    17:00 +20°C° 0.5 mm 4 mps 737 mmHg 83%
    18:00 +19°C° 0.1 mm 3 mps 737 mmHg 87%
    19:00 +17°C° 0.1 mm 3 mps 737 mmHg 91%
    20:00 +16°C° 0.1 mm 3 mps 738 mmHg 94%
    21:00 +15°C° 0 mm 2 mps 738 mmHg 95%
    22:00 +15°C° 0 mm 2 mps 738 mmHg 96%
    23:00 +14°C° 0 mm 2 mps 738 mmHg 96%

    Tomorrow, 19 August, Monday

    Time Temperature Precipitation Wind Pressure Humidity
    00:00 +14°C° 0 mm 2 mps 739 mmHg 97%
    01:00 +14°C° 0 mm 2 mps 739 mmHg 97%
    02:00 +13°C° 0 mm 2 mps 739 mmHg 98%
    03:00 +13°C° 0 mm 3 mps 740 mmHg 97%
    04:00 +13°C° 0 mm 3 mps 740 mmHg 96%
    05:00 +14°C° 0 mm 3 mps 741 mmHg 95%
    06:00 +14°C° 0 mm 3 mps 741 mmHg 92%
    07:00 +16°C° 0 mm 3 mps 741 mmHg 90%
    08:00 +17°C° 0 mm 3 mps 741 mmHg 88%
    09:00 +18°C° 0 mm 3 mps 742 mmHg 82%
    10:00 +20°C° 0 mm 3 mps 742 mmHg 75%
    11:00 +22°C° 0 mm 3 mps 742 mmHg 69%
    12:00 +22°C° 0 mm 3 mps 743 mmHg 66%
    13:00 +24°C° 0 mm 3 mps 743 mmHg 64%
    14:00 +25°C° 0 mm 2 mps 743 mmHg 61%
    15:00 +25°C° 0 mm 2 mps 743 mmHg 64%
    16:00 +24°C° 0 mm 2 mps 743 mmHg 68%
    17:00 +24°C° 0 mm 1 mps 743 mmHg 71%
    18:00 +23°C° 0 mm 1 mps 743 mmHg 75%
    19:00 +21°C° 0 mm 1 mps 743 mmHg 79%
    20:00 +19°C° 0 mm 1 mps 744 mmHg 84%
    21:00 +19°C° 0 mm 1 mps 744 mmHg 85%
    22:00 +18°C° 0 mm 1 mps 744 mmHg 86%
    23:00 +18°C° 0 mm 1 mps 744 mmHg 87%

    Day after tomorrow, 20 August, Tuesday

    Time Temperature Precipitation Wind Pressure Humidity
    00:00 +16°C° 0 mm 1 mps 744 mmHg 87%
    01:00 +16°C° 0 mm 1 mps 744 mmHg 88%
    02:00 +16°C° 0 mm 1 mps 745 mmHg 88%
    03:00 +16°C° 0 mm 1 mps 745 mmHg 88%
    04:00 +16°C° 0 mm 1 mps 745 mmHg 88%
    05:00 +16°C° 0 mm 1 mps 745 mmHg 89%
    06:00 +17°C° 0 mm 2 mps 745 mmHg 84%
    07:00 +19°C° 0 mm 2 mps 745 mmHg 79%
    08:00 +21°C° 0 mm 2 mps 746 mmHg 74%
    09:00 +23°C° 0 mm 2 mps 746 mmHg 70%
    10:00 +24°C° 0 mm 2 mps 746 mmHg 66%
    11:00 +26°C° 0 mm 2 mps 746 mmHg 61%
    12:00 +26°C° 0 mm 2 mps 745 mmHg 61%
    13:00 +27°C° 0 mm 2 mps 745 mmHg 60%
    14:00 +27°C° 0 mm 2 mps 745 mmHg 59%
    15:00 +27°C° 0 mm 2 mps 745 mmHg 63%
    16:00 +27°C° 0 mm 2 mps 745 mmHg 67%
    17:00 +26°C° 0 mm 1 mps 745 mmHg 70%
    18:00 +25°C° 0 mm 1 mps 745 mmHg 74%
    19:00 +23°C° 0 mm 1 mps 745 mmHg 77%
    20:00 +22°C° 0 mm 1 mps 745 mmHg 80%
    21:00 +21°C° 0 mm 1 mps 746 mmHg 81%
    22:00 +21°C° 0 mm 1 mps 746 mmHg 82%
    23:00 +21°C° 0 mm 1 mps 746 mmHg 83%

    21 August, Wednesday

    Time Temperature Precipitation Wind Pressure Humidity
    00:00 +20°C° 0 mm 1 mps 746 mmHg 85%
    01:00 +20°C° 0 mm 1 mps 746 mmHg 87%
    02:00 +19°C° 0 mm 1 mps 746 mmHg 88%
    03:00 +19°C° 0 mm 1 mps 746 mmHg 89%
    04:00 +19°C° 0 mm 1 mps 746 mmHg 89%
    05:00 +19°C° 0 mm 1 mps 746 mmHg 89%
    06:00 +21°C° 0 mm 1 mps 746 mmHg 84%
    07:00 +23°C° 0 mm 1 mps 746 mmHg 80%
    08:00 +24°C° 0 mm 1 mps 746 mmHg 75%
    09:00 +26°C° 0 mm 1 mps 746 mmHg 70%
    10:00 +25°C° 0 mm 0 mps 746 mmHg 66%
    11:00 +26°C° 0 mm 0 mps 746 mmHg 62%
    12:00 +28°C° 0 mm 1 mps 746 mmHg 60%
    13:00 +29°C° 0 mm 1 mps 746 mmHg 58%
    14:00 +29°C° 0 mm 1 mps 745 mmHg 56%
    15:00 +29°C° 0 mm 1 mps 745 mmHg 60%
    16:00 +28°C° 0 mm 1 mps 745 mmHg 63%
    17:00 +28°C° 0 mm 1 mps 744 mmHg 67%
    18:00 +26°C° 0 mm 2 mps 744 mmHg 70%
    19:00 +25°C° 0 mm 2 mps 744 mmHg 74%
    20:00 +23°C° 0 mm 2 mps 744 mmHg 78%
    21:00 +23°C° 0 mm 2 mps 744 mmHg 79%
    22:00 +21°C° 0 mm 2 mps 744 mmHg 81%
    23:00 +21°C° 0 mm 2 mps 744 mmHg 82%

    22 August, Thursday

    Time Temperature Precipitation Wind Pressure Humidity
    00:00 +20°C° 0 mm 2 mps 744 mmHg 83%
    01:00 +20°C° 0 mm 2 mps 744 mmHg 84%
    02:00 +19°C° 0 mm 2 mps 743 mmHg 84%
    03:00 +19°C° 0 mm 2 mps 743 mmHg 85%
    04:00 +19°C° 0 mm 2 mps 743 mmHg 87%
    05:00 +18°C° 0 mm 2 mps 743 mmHg 88%
    06:00 +20°C° 0 mm 2 mps 743 mmHg 83%
    07:00 +21°C° 0 mm 2 mps 743 mmHg 78%
    08:00 +24°C° 0 mm 2 mps 743 mmHg 74%
    09:00 +25°C° 0 mm 2 mps 743 mmHg 69%
    10:00 +26°C° 0 mm 2 mps 743 mmHg 65%
    11:00 +27°C° 0 mm 2 mps 743 mmHg 60%
    12:00 +27°C° 0 mm 2 mps 743 mmHg 59%
    13:00 +27°C° 0 mm 2 mps 743 mmHg 59%
    14:00 +28°C° 0 mm 2 mps 743 mmHg 58%
    15:00 +26°C° 0 mm 3 mps 743 mmHg 65%
    16:00 +25°C° 0 mm 4 mps 743 mmHg 73%
    17:00 +23°C° 0 mm 5 mps 743 mmHg 81%
    18:00 +21°C° 0 mm 5 mps 743 mmHg 82%
    19:00 +20°C° 0 mm 5 mps 743 mmHg 83%
    20:00 +19°C° 0 mm 4 mps 744 mmHg 84%
    21:00 +18°C° 0.1 mm 4 mps 744 mmHg 84%
    22:00 +18°C° 0.1 mm 4 mps 744 mmHg 84%
    23:00 +18°C° 0.1 mm 3 mps 744 mmHg 84%

    23 August, Friday

    Time Temperature Precipitation Wind Pressure Humidity
    00:00 +17°C° 0.1 mm 3 mps 744 mmHg 84%
    01:00 +17°C° 0.1 mm 4 mps 744 mmHg 84%
    02:00 +17°C° 0.1 mm 4 mps 745 mmHg 85%
    03:00 +17°C° 0.1 mm 4 mps 745 mmHg 85%
    04:00 +15°C° 0.1 mm 4 mps 745 mmHg 86%
    05:00 +15°C° 0.1 mm 4 mps 745 mmHg 86%
    06:00 +15°C° 0 mm 4 mps 745 mmHg 84%
    07:00 +17°C° 0 mm 4 mps 745 mmHg 82%
    08:00 +17°C° 0 mm 4 mps 745 mmHg 80%
    09:00 +18°C° 0 mm 4 mps 745 mmHg 75%
    10:00 +20°C° 0 mm 4 mps 745 mmHg 71%
    11:00 +21°C° 0 mm 3 mps 745 mmHg 66%
    12:00 +21°C° 0 mm 3 mps 745 mmHg 64%
    13:00 +21°C° 0 mm 3 mps 745 mmHg 63%
    14:00 +22°C° 0 mm 3 mps 745 mmHg 61%
    15:00 +21°C° 0 mm 3 mps 745 mmHg 64%
    16:00 +21°C° 0 mm 3 mps 745 mmHg 67%
    17:00 +20°C° 0 mm 2 mps 745 mmHg 69%
    18:00 +19°C° 0 mm 2 mps 745 mmHg 72%
    19:00 +17°C° 0 mm 2 mps 745 mmHg 74%
    20:00 +16°C° 0 mm 2 mps 745 mmHg 77%
    21:00 +15°C° 0 mm 2 mps 745 mmHg 77%
    22:00 +15°C° 0 mm 2 mps 745 mmHg 77%
    23:00 +15°C° 0 mm 2 mps 745 mmHg 78%
    Show more